Weather History for PAHN - January, 2012

Change the Weather History Date:

Wednesday, January 11, 2012

  Actual Average Record
Temperature  
Mean Temperature 35 °F -  
Max Temperature 37 °F 26 °F 46 °F (1981)
Min Temperature 33 °F 19 °F -10 °F (1975)
Degree Days  
Heating Degree Days 30    
Moisture  
Dew Point 33 °F    
Average Humidity 94    
Maximum Humidity 100    
Minimum Humidity 86    
Precipitation  
Precipitation 0.29 in - - ()
Sea Level Pressure  
Sea Level Pressure 30.05 in    
Wind  
Wind Speed 15 mph (ENE)    
Max Wind Speed 20 mph    
Max Gust Speed 34 mph    
Visibility 4 miles    
Events Rain , Snow    
Averages and records for this station are not official NWS values.
T = Trace of Precipitation, MM = Missing Value Source: NWS Daily Summary

Daily Weather History Graph

Daily Weather History Graph

Search for Another Location

Airport or City:

Trip Planner

Search our weather history database for the weather conditions in past years. The results will help you decide how hot, cold, wet, or windy it might be!

Date:

Astronomy

Jan. 11, 2012 Rise Set
Actual Time 8:49 AM AKST 3:30 PM AKST
Civil Twilight 7:57 AM AKST 4:22 PM AKST
Nautical Twilight 7:04 AM AKST 5:16 PM AKST
Astronomical Twilight 6:14 AM AKST 6:05 PM AKST
Moon 7:35 PM AKST (1/11) 9:14 AM AKST (1/11)
Length of Visible Light 8h 25m
Length of Day
6h 41m
Waning Gibbous, 93% of the Moon is Illuminated
Jan 11
Waning Gibbous
Jan 16
Last Quarter
Jan 22
New
Jan 30
First Quarter
Feb 7
Full

Hourly Weather History & Observations

Time (AKST) Temp. Windchill Dew Point Humidity Pressure Visibility Wind Dir Wind Speed Gust Speed Precip Events Conditions
12:54 AM 33.1 °F 22.6 °F 32.0 °F 96% 30.22 in 1.5 mi East 16.1 mph 27.6 mph 0.02 in Snow Light Snow
1:02 AM 33.8 °F 23.5 °F 32.0 °F 93% 30.21 in 2.5 mi East 16.1 mph 24.2 mph 0.00 in Snow Light Snow
1:09 AM 33.8 °F 24.3 °F 32.0 °F 93% 30.20 in 3.0 mi East 13.8 mph 26.5 mph 0.00 in Snow Light Snow
1:26 AM 33.8 °F 23.2 °F 32.0 °F 93% 30.20 in 2.5 mi East 17.3 mph 27.6 mph 0.00 in Snow Light Snow
1:34 AM 33.8 °F 24.3 °F 32.0 °F 93% 30.19 in 2.5 mi East 13.8 mph 26.5 mph 0.00 in Snow Light Snow
1:54 AM 34.0 °F 23.0 °F 32.0 °F 92% 30.19 in 4.0 mi ENE 18.4 mph 26.5 mph 0.00 in Snow Light Snow
2:03 AM 33.8 °F 23.2 °F 32.0 °F 93% 30.18 in 2.5 mi ENE 17.3 mph 27.6 mph 0.00 in Snow Light Snow
2:12 AM 33.8 °F 23.5 °F 32.0 °F 93% 30.18 in 3.0 mi East 16.1 mph 24.2 mph 0.00 in Snow Light Snow
2:26 AM 33.8 °F 22.5 °F 32.0 °F 93% 30.17 in 2.0 mi ENE 19.6 mph 28.8 mph 0.01 in Snow Light Snow
2:54 AM 34.0 °F 24.2 °F 32.0 °F 92% 30.17 in 2.5 mi East 15.0 mph 27.6 mph 0.01 in Snow Light Snow
3:07 AM 33.8 °F 23.9 °F 32.0 °F 93% 30.15 in 3.0 mi East 15.0 mph 27.6 mph 0.00 in Snow Light Snow
3:23 AM 33.8 °F 23.9 °F 32.0 °F 93% 30.15 in 2.0 mi East 15.0 mph 26.5 mph 0.00 in Snow Light Snow
3:32 AM 33.8 °F 23.2 °F 32.0 °F 93% 30.15 in 1.5 mi ENE 17.3 mph 27.6 mph 0.01 in Snow Light Snow
3:54 AM 34.0 °F 23.8 °F 32.0 °F 92% 30.14 in 1.8 mi ENE 16.1 mph 31.1 mph 0.02 in Snow Light Snow
4:31 AM 33.8 °F 23.5 °F 32.0 °F 93% 30.11 in 2.5 mi ENE 16.1 mph 27.6 mph 0.01 in Snow Light Snow
4:46 AM 33.8 °F 24.8 °F 32.0 °F 93% 30.11 in 1.8 mi East 12.7 mph 26.5 mph 0.02 in Snow Light Snow
4:54 AM 34.0 °F 23.8 °F 32.0 °F 92% 30.11 in 1.8 mi East 16.1 mph 23.0 mph 0.02 in Snow Light Snow
5:05 AM 33.8 °F 23.9 °F 32.0 °F 93% 30.09 in 2.0 mi East 15.0 mph 23.0 mph 0.00 in Snow Light Snow
5:29 AM 33.8 °F 23.5 °F 32.0 °F 93% 30.07 in 3.0 mi ENE 16.1 mph 31.1 mph 0.01 in Snow Light Snow
5:54 AM 34.0 °F 23.8 °F 32.0 °F 92% 30.08 in 2.5 mi East 16.1 mph 28.8 mph 0.01 in Snow Light Snow
6:54 AM 34.0 °F 23.4 °F 32.0 °F 92% 30.05 in 2.0 mi East 17.3 mph 28.8 mph 0.03 in Snow Light Snow
7:09 AM 33.8 °F 22.8 °F 32.0 °F 93% 30.03 in 1.8 mi ENE 18.4 mph 26.5 mph 0.01 in Snow Light Snow
7:16 AM 33.8 °F 23.9 °F 32.0 °F 93% 30.03 in 1.5 mi ENE 15.0 mph 29.9 mph 0.02 in Snow Light Snow
7:54 AM 34.0 °F 22.7 °F 32.0 °F 92% 30.03 in 2.0 mi ENE 19.6 mph 29.9 mph 0.06 in Snow Light Snow
8:19 AM 33.8 °F 23.5 °F 32.0 °F 93% 30.01 in 1.8 mi ENE 16.1 mph 29.9 mph 0.01 in Snow Light Snow
8:29 AM 33.8 °F 23.2 °F 32.0 °F 93% 30.01 in 2.5 mi ENE 17.3 mph 29.9 mph 0.02 in Snow Light Snow
8:36 AM 33.8 °F 23.5 °F 32.0 °F 93% 30.01 in 3.0 mi ENE 16.1 mph 29.9 mph 0.02 in Snow Light Snow
8:50 AM 33.8 °F 23.5 °F 32.0 °F 93% 30.00 in 2.0 mi ENE 16.1 mph 31.1 mph 0.03 in Snow Light Snow
8:54 AM 34.0 °F 23.8 °F 32.0 °F 92% 30.01 in 2.0 mi ENE 16.1 mph 31.1 mph 0.03 in Snow Light Snow
9:08 AM 33.8 °F 22.8 °F 32.0 °F 93% 30.00 in 4.0 mi ENE 18.4 mph 34.5 mph 0.00 in Snow Light Snow
9:24 AM 33.8 °F 23.2 °F 32.0 °F 93% 30.00 in 2.5 mi ENE 17.3 mph 26.5 mph 0.01 in Snow Light Snow
9:32 AM 33.8 °F 23.5 °F 32.0 °F 93% 30.00 in 3.0 mi ENE 16.1 mph 31.1 mph 0.01 in Snow Light Snow
9:54 AM 34.0 °F 25.0 °F 33.1 °F 96% 30.03 in 2.5 mi East 12.7 mph 28.8 mph 0.01 in Snow Light Snow
10:04 AM 33.8 °F 23.5 °F 33.8 °F 100% 30.01 in 3.0 mi ENE 16.1 mph 27.6 mph 0.00 in Snow Light Snow
10:11 AM 33.8 °F 23.9 °F 33.8 °F 100% 30.03 in 2.5 mi East 15.0 mph 23.0 mph 0.01 in Snow Light Snow
10:28 AM 33.8 °F 25.8 °F 33.8 °F 100% 30.03 in 3.0 mi East 10.4 mph 24.2 mph 0.01 in Snow Light Snow
10:42 AM 33.8 °F 24.8 °F 33.8 °F 100% 30.03 in 2.5 mi East 12.7 mph 26.5 mph 0.02 in Snow Light Snow
10:46 AM 33.8 °F 23.9 °F 33.8 °F 100% 30.02 in 1.8 mi East 15.0 mph 26.5 mph 0.02 in Snow Light Snow
10:54 AM 34.0 °F 23.4 °F 32.0 °F 92% 30.02 in 1.2 mi East 17.3 mph 26.5 mph 0.04 in Snow Light Snow
11:01 AM 33.8 °F 22.8 °F 32.0 °F 93% 30.02 in 1.2 mi East 18.4 mph 27.6 mph 0.00 in Snow Light Snow
11:42 AM 33.8 °F 23.2 °F 33.8 °F 100% 30.02 in 2.5 mi ENE 17.3 mph 31.1 mph 0.03 in Snow Light Snow
11:51 AM 33.8 °F 22.8 °F 33.8 °F 100% 30.02 in 4.0 mi ENE 18.4 mph 32.2 mph 0.03 in Snow Light Snow
11:54 AM 35.1 °F 24.8 °F 33.1 °F 92% 30.03 in 4.0 mi East 17.3 mph 32.2 mph 0.03 in Snow Light Snow
12:54 PM 35.1 °F 25.9 °F 33.1 °F 92% 30.04 in 10.0 mi East 13.8 mph 24.2 mph 0.01 in   Overcast
1:54 PM 35.1 °F 26.4 °F 34.0 °F 96% 30.04 in 10.0 mi East 12.7 mph 21.9 mph 0.00 in Rain Light Rain
2:54 PM 35.1 °F 26.9 °F 34.0 °F 96% 30.03 in 10.0 mi East 11.5 mph 24.2 mph 0.00 in   Overcast
3:54 PM 36.0 °F 28.0 °F 34.0 °F 93% 30.03 in 10.0 mi East 11.5 mph 20.7 mph 0.00 in   Overcast
4:54 PM 36.0 °F 28.0 °F 35.1 °F 97% 30.03 in 10.0 mi ENE 11.5 mph 25.3 mph 0.00 in   Overcast
5:54 PM 37.0 °F 28.1 °F 35.1 °F 93% 30.02 in 10.0 mi East 15.0 mph 23.0 mph 0.00 in Rain Light Rain
6:54 PM 37.0 °F 30.4 °F 35.1 °F 93% 30.01 in 10.0 mi East 9.2 mph 19.6 mph 0.00 in   Overcast
7:54 PM 37.0 °F 31.0 °F 35.1 °F 93% 29.99 in 10.0 mi ENE 8.1 mph 19.6 mph N/A   Overcast
8:04 PM 37.4 °F 30.3 °F 35.6 °F 93% 29.98 in 10.0 mi ENE 10.4 mph 20.7 mph N/A   Overcast
8:54 PM 37.9 °F 30.0 °F 35.1 °F 89% 29.96 in 10.0 mi East 12.7 mph 23.0 mph N/A   Overcast
9:43 PM 37.4 °F 28.9 °F 35.6 °F 93% 29.93 in 10.0 mi ENE 13.8 mph 24.2 mph 0.00 in Rain Light Rain
9:54 PM 37.9 °F 30.9 °F 35.1 °F 89% 29.93 in 10.0 mi East 10.4 mph 20.7 mph 0.00 in   Overcast
10:54 PM 37.9 °F 29.6 °F 35.1 °F 89% 29.90 in 10.0 mi NE 13.8 mph 23.0 mph 0.00 in Rain Light Rain
11:34 PM 37.4 °F 30.3 °F 35.6 °F 93% 29.88 in 10.0 mi East 10.4 mph 20.7 mph 0.00 in   Overcast
11:54 PM 37.9 °F 30.9 °F 34.0 °F 86% 29.88 in 10.0 mi ENE 10.4 mph 19.6 mph 0.00 in Rain Light Rain